User: anonymous   Login
Location: Columbia
(38.9520°N, 92.3340°W)
Time: 19:11:42
(UTC-05:00)
Language:

SJ-11-01 - Orbit

View from above orbital plane
View from above orbital plane
View from above satellite
View from above satellite

Ground track
Ground track

The orbit data is extracted from the following two-line orbital elements,

1 36088U 09061A   17179.56526759 +.00000058 +00000-0 +21645-4 0  9996
2 36088 098.1355 227.1456 0010321 227.5622 132.4709 14.59948683406304
Epoch (UTC): 28 June 2017 13:33:59
Eccentricity: 0.0010321
inclination: 98.1355°
perigee height: 686 km
apogee height: 700 km
right ascension of ascending node: 227.1456°
argument of perigee: 227.5622°
revolutions per day: 14.59948683
mean anomaly at epoch: 132.4709°
orbit number at epoch: 40630

The dashed part of the orbit path shows where the satellite is in the earth's shadow,  

DLR